| time (UTC) | temp F | wind direction | speed MPH | gust MPH | rain 1hr in | rain 24hr in | rain mn in | humidity % | barometer mb |
| 20260508002028 | 53 | 0.0 | 0.0 | 0.00 | 0.10 | 0.10 | 45 | 1006.8 | |
| 20260508001528 | 54 | 42 | 0.0 | 1.0 | 0.00 | 0.10 | 0.10 | 43 | 1006.7 |
| 20260508001048 | 54 | 42 | 0.0 | 1.0 | 0.00 | 0.10 | 0.10 | 42 | 1006.7 |
| 20260508000528 | 55 | 43 | 0.0 | 1.0 | 0.00 | 0.10 | 0.10 | 44 | 1006.7 |
| 20260508000028 | 55 | 43 | 0.0 | 1.0 | 0.00 | 0.10 | 0.10 | 40 | 1006.7 |
| 20260507235609 | 56 | 47 | 0.0 | 1.0 | 0.00 | 0.10 | 0.10 | 40 | 1006.6 |
| 20260507235028 | 56 | 47 | 0.0 | 1.0 | 0.00 | 0.10 | 0.10 | 39 | 1006.5 |
| 20260507234527 | 56 | 3 | 0.0 | 3.0 | 0.00 | 0.10 | 0.10 | 39 | 1006.4 |
| 20260507234028 | 57 | 357 | 0.0 | 2.0 | 0.00 | 0.10 | 0.10 | 38 | 1006.4 |
| 20260507233527 | 57 | 40 | 1.0 | 2.0 | 0.00 | 0.10 | 0.10 | 36 | 1006.4 |
| 20260507233047 | 57 | 50 | 1.0 | 2.0 | 0.00 | 0.10 | 0.10 | 36 | 1006.3 |
| 20260507232529 | 57 | 326 | 1.0 | 2.0 | 0.00 | 0.11 | 0.10 | 37 | 1006.3 |
| 20260507232029 | 58 | 20 | 1.0 | 2.0 | 0.00 | 0.11 | 0.10 | 35 | 1006.2 |
| 20260507231529 | 58 | 8 | 0.0 | 2.0 | 0.00 | 0.12 | 0.10 | 36 | 1006.2 |
| 20260507231028 | 58 | 4 | 1.0 | 3.0 | 0.00 | 0.12 | 0.10 | 34 | 1006.1 |
| 20260507230529 | 59 | 33 | 0.0 | 2.0 | 0.00 | 0.13 | 0.10 | 34 | 1006.1 |
| 20260507230028 | 59 | 28 | 1.0 | 7.0 | 0.00 | 0.13 | 0.10 | 32 | 1006.1 |
| 20260507225528 | 59 | 19 | 2.0 | 6.0 | 0.00 | 0.13 | 0.10 | 33 | 1006.0 |
| 20260507225048 | 59 | 333 | 2.0 | 3.0 | 0.00 | 0.13 | 0.10 | 32 | 1006.0 |
| 20260507224528 | 59 | 12 | 1.0 | 6.0 | 0.00 | 0.13 | 0.10 | 33 | 1006.0 |
| 20260507224028 | 60 | 31 | 1.0 | 4.0 | 0.00 | 0.13 | 0.10 | 34 | 1005.8 |
| 20260507223527 | 60 | 5 | 1.0 | 4.0 | 0.00 | 0.13 | 0.10 | 33 | 1005.8 |
| 20260507223027 | 60 | 358 | 1.0 | 2.0 | 0.00 | 0.13 | 0.10 | 33 | 1005.8 |
| 20260507222607 | 60 | 60 | 1.0 | 3.0 | 0.00 | 0.13 | 0.10 | 31 | 1005.7 |
| 20260507222027 | 60 | 51 | 1.0 | 3.0 | 0.00 | 0.13 | 0.10 | 32 | 1005.8 |
| 20260507221527 | 60 | 13 | 2.0 | 6.0 | 0.00 | 0.13 | 0.10 | 31 | 1005.7 |
| 20260507221029 | 60 | 336 | 1.0 | 3.0 | 0.00 | 0.13 | 0.10 | 31 | 1005.5 |
| 20260507220549 | 60 | 7 | 2.0 | 7.0 | 0.00 | 0.13 | 0.10 | 31 | 1005.5 |
| 20260507220029 | 60 | 358 | 2.0 | 6.0 | 0.00 | 0.13 | 0.10 | 31 | 1005.7 |
| 20260507215528 | 60 | 359 | 2.0 | 9.0 | 0.00 | 0.13 | 0.10 | 31 | 1005.5 |
| 20260507215029 | 61 | 3 | 2.0 | 6.0 | 0.00 | 0.13 | 0.10 | 31 | 1005.5 |
| 20260507214528 | 61 | 10 | 1.0 | 4.0 | 0.00 | 0.14 | 0.10 | 31 | 1005.5 |
| 20260507214028 | 61 | 14 | 2.0 | 4.0 | 0.00 | 0.14 | 0.10 | 31 | 1005.3 |
| 20260507213528 | 61 | 15 | 2.0 | 7.0 | 0.00 | 0.14 | 0.10 | 30 | 1005.4 |
| 20260507213028 | 61 | 11 | 2.0 | 6.0 | 0.00 | 0.14 | 0.10 | 30 | 1005.3 |
| 20260507212528 | 62 | 348 | 2.0 | 4.0 | 0.00 | 0.14 | 0.10 | 30 | 1005.2 |
| 20260507212028 | 62 | 334 | 1.0 | 7.0 | 0.00 | 0.14 | 0.10 | 33 | 1005.3 |
| 20260507211527 | 62 | 13 | 2.0 | 4.0 | 0.00 | 0.14 | 0.10 | 30 | 1005.2 |
| 20260507211027 | 62 | 15 | 3.0 | 6.0 | 0.00 | 0.14 | 0.10 | 30 | 1005.3 |
| 20260507210527 | 62 | 326 | 1.0 | 7.0 | 0.00 | 0.14 | 0.10 | 30 | 1005.1 |
| 20260507210108 | 62 | 7 | 2.0 | 7.0 | 0.00 | 0.14 | 0.10 | 30 | 1005.3 |
| 20260507205529 | 62 | 350 | 3.0 | 10.0 | 0.00 | 0.14 | 0.10 | 30 | 1005.1 |
| 20260507205029 | 62 | 358 | 4.0 | 10.0 | 0.00 | 0.14 | 0.10 | 30 | 1005.1 |
| 20260507204528 | 62 | 13 | 2.0 | 4.0 | 0.00 | 0.14 | 0.10 | 30 | 1005.1 |
| 20260507204029 | 62 | 355 | 3.0 | 8.0 | 0.00 | 0.14 | 0.10 | 31 | 1005.2 |
| 20260507203528 | 62 | 320 | 1.0 | 3.0 | 0.00 | 0.15 | 0.10 | 32 | 1005.1 |
| 20260507203048 | 63 | 13 | 2.0 | 4.0 | 0.00 | 0.15 | 0.10 | 32 | 1005.2 |
| 20260507202528 | 63 | 360 | 2.0 | 4.0 | 0.00 | 0.15 | 0.10 | 31 | 1005.1 |
| 20260507202028 | 63 | 37 | 1.0 | 3.0 | 0.00 | 0.15 | 0.10 | 32 | 1005.1 |
| 20260507201528 | 63 | 3 | 2.0 | 7.0 | 0.00 | 0.15 | 0.10 | 31 | 1005.1 |
| 20260507201027 | 63 | 4 | 2.0 | 4.0 | 0.00 | 0.15 | 0.10 | 33 | 1005.1 |
| 20260507200528 | 63 | 358 | 2.0 | 8.0 | 0.00 | 0.15 | 0.10 | 30 | 1005.2 |
| 20260507200029 | 63 | 342 | 2.0 | 8.0 | 0.00 | 0.15 | 0.10 | 31 | 1005.2 |
| 20260507195527 | 63 | 8 | 2.0 | 6.0 | 0.00 | 0.15 | 0.10 | 31 | 1005.3 |
| 20260507195028 | 63 | 333 | 2.0 | 7.0 | 0.00 | 0.15 | 0.10 | 31 | 1005.4 |
| 20260507194527 | 63 | 18 | 2.0 | 6.0 | 0.00 | 0.16 | 0.10 | 29 | 1005.4 |
| 20260507194029 | 63 | 353 | 2.0 | 6.0 | 0.00 | 0.16 | 0.10 | 30 | 1005.5 |
| 20260507193528 | 64 | 312 | 2.0 | 6.0 | 0.00 | 0.17 | 0.10 | 30 | 1005.6 |
| 20260507193054 | 63 | 25 | 1.0 | 6.0 | 0.00 | 0.17 | 0.10 | 30 | 1005.6 |
| 20260507192528 | 63 | 14 | 2.0 | 4.0 | 0.00 | 0.17 | 0.10 | 30 | 1005.6 |
| 20260507192028 | 64 | 360 | 2.0 | 4.0 | 0.00 | 0.18 | 0.10 | 29 | 1005.6 |
| 20260507191609 | 64 | 8 | 1.0 | 4.0 | 0.00 | 0.18 | 0.10 | 28 | 1005.7 |
| 20260507191028 | 64 | 346 | 1.0 | 3.0 | 0.00 | 0.19 | 0.10 | 28 | 1005.7 |
| 20260507190548 | 64 | 291 | 3.0 | 8.0 | 0.00 | 0.19 | 0.10 | 31 | 1005.6 |
| 20260507190048 | 63 | 359 | 2.0 | 7.0 | 0.00 | 0.19 | 0.10 | 30 | 1005.8 |
| 20260507185527 | 63 | 6 | 2.0 | 7.0 | 0.00 | 0.19 | 0.10 | 29 | 1005.9 |
| 20260507185029 | 64 | 26 | 3.0 | 7.0 | 0.00 | 0.19 | 0.10 | 28 | 1005.8 |
| 20260507184529 | 64 | 347 | 1.0 | 3.0 | 0.00 | 0.19 | 0.10 | 28 | 1005.9 |
| 20260507184029 | 64 | 359 | 2.0 | 4.0 | 0.00 | 0.19 | 0.10 | 29 | 1005.9 |
| 20260507183529 | 64 | 265 | 2.0 | 9.0 | 0.00 | 0.19 | 0.10 | 30 | 1005.9 |
| 20260507183028 | 64 | 27 | 1.0 | 3.0 | 0.00 | 0.19 | 0.10 | 29 | 1006.0 |
| 20260507182609 | 64 | 259 | 2.0 | 9.0 | 0.00 | 0.19 | 0.10 | 29 | 1005.9 |
| 20260507182029 | 64 | 339 | 2.0 | 7.0 | 0.00 | 0.19 | 0.10 | 29 | 1006.0 |
| 20260507181548 | 64 | 3 | 3.0 | 8.0 | 0.00 | 0.19 | 0.10 | 29 | 1006.1 |
| 20260507181029 | 65 | 263 | 2.0 | 7.0 | 0.00 | 0.19 | 0.10 | 31 | 1006.1 |
| 20260507180528 | 64 | 268 | 1.0 | 3.0 | 0.00 | 0.19 | 0.10 | 36 | 1006.2 |
| 20260507180028 | 63 | 12 | 2.0 | 6.0 | 0.00 | 0.19 | 0.10 | 33 | 1006.2 |
| 20260507175528 | 63 | 326 | 3.0 | 11.0 | 0.00 | 0.19 | 0.10 | 35 | 1006.2 |
| 20260507175028 | 63 | 356 | 2.0 | 4.0 | 0.00 | 0.19 | 0.10 | 37 | 1006.3 |
| 20260507174527 | 63 | 18 | 1.0 | 6.0 | 0.00 | 0.19 | 0.10 | 34 | 1006.2 |
| 20260507174028 | 64 | 354 | 2.0 | 6.0 | 0.00 | 0.19 | 0.10 | 35 | 1006.2 |
| 20260507173527 | 64 | 330 | 2.0 | 6.0 | 0.00 | 0.19 | 0.10 | 34 | 1006.1 |
| 20260507173047 | 64 | 326 | 2.0 | 4.0 | 0.00 | 0.19 | 0.10 | 36 | 1006.2 |
| 20260507172547 | 63 | 314 | 2.0 | 6.0 | 0.00 | 0.19 | 0.10 | 37 | 1006.1 |
| 20260507172027 | 63 | 330 | 2.0 | 6.0 | 0.00 | 0.19 | 0.10 | 37 | 1006.3 |
| 20260507171529 | 63 | 18 | 2.0 | 6.0 | 0.00 | 0.19 | 0.10 | 36 | 1006.3 |
| 20260507171029 | 63 | 8 | 2.0 | 6.0 | 0.00 | 0.19 | 0.10 | 38 | 1006.4 |
| 20260507170529 | 63 | 2 | 2.0 | 6.0 | 0.00 | 0.19 | 0.10 | 37 | 1006.5 |
| 20260507170028 | 63 | 348 | 2.0 | 6.0 | 0.00 | 0.19 | 0.10 | 39 | 1006.5 |
| 20260507165528 | 62 | 318 | 2.0 | 6.0 | 0.00 | 0.19 | 0.10 | 40 | 1006.6 |
| 20260507165028 | 62 | 327 | 2.0 | 6.0 | 0.00 | 0.19 | 0.10 | 43 | 1006.5 |
| 20260507164528 | 62 | 8 | 2.0 | 7.0 | 0.00 | 0.19 | 0.10 | 44 | 1006.5 |
| 20260507164028 | 62 | 358 | 3.0 | 7.0 | 0.00 | 0.19 | 0.10 | 42 | 1006.6 |
| 20260507163528 | 62 | 9 | 2.0 | 4.0 | 0.00 | 0.19 | 0.10 | 45 | 1006.8 |
| 20260507163028 | 61 | 12 | 2.0 | 4.0 | 0.00 | 0.19 | 0.10 | 44 | 1006.9 |
| 20260507162548 | 62 | 354 | 2.0 | 6.0 | 0.00 | 0.19 | 0.10 | 46 | 1006.8 |
| 20260507162027 | 62 | 9 | 3.0 | 6.0 | 0.00 | 0.19 | 0.10 | 46 | 1006.8 |
| 20260507161527 | 62 | 11 | 2.0 | 4.0 | 0.00 | 0.19 | 0.10 | 51 | 1006.9 |
| 20260507161027 | 61 | 349 | 2.0 | 4.0 | 0.00 | 0.19 | 0.10 | 49 | 1006.9 |
| 20260507160607 | 62 | 296 | 3.0 | 14.0 | 0.00 | 0.19 | 0.10 | 52 | 1007.0 |
| 20260507160027 | 60 | 17 | 1.0 | 4.0 | 0.00 | 0.19 | 0.10 | 51 | 1007.1 |
| 20260507155529 | 61 | 328 | 2.0 | 4.0 | 0.00 | 0.19 | 0.10 | 52 | 1007.1 |
| 20260507155029 | 61 | 344 | 2.0 | 4.0 | 0.00 | 0.19 | 0.10 | 53 | 1007.0 |
| 20260507154528 | 60 | 34 | 2.0 | 7.0 | 0.00 | 0.19 | 0.10 | 54 | 1007.1 |
| 20260507154028 | 59 | 11 | 3.0 | 7.0 | 0.00 | 0.19 | 0.10 | 54 | 1007.1 |
| 20260507153548 | 58 | 25 | 2.0 | 4.0 | 0.00 | 0.19 | 0.10 | 57 | 1007.2 |
| 20260507153028 | 58 | 42 | 1.0 | 3.0 | 0.00 | 0.19 | 0.10 | 56 | 1007.2 |
| 20260507152529 | 59 | 24 | 2.0 | 6.0 | 0.00 | 0.19 | 0.10 | 55 | 1007.2 |
| 20260507152029 | 59 | 20 | 2.0 | 6.0 | 0.00 | 0.19 | 0.10 | 57 | 1007.3 |
| 20260507151548 | 58 | 359 | 1.0 | 4.0 | 0.00 | 0.19 | 0.10 | 58 | 1007.4 |
| 20260507151033 | 58 | 28 | 1.0 | 3.0 | 0.00 | 0.19 | 0.10 | 56 | 1007.4 |
| 20260507150528 | 59 | 17 | 2.0 | 6.0 | 0.00 | 0.19 | 0.10 | 55 | 1007.4 |
| 20260507150028 | 59 | 29 | 2.0 | 4.0 | 0.00 | 0.19 | 0.10 | 55 | 1007.5 |
| 20260507145529 | 60 | 25 | 1.0 | 3.0 | 0.00 | 0.19 | 0.10 | 54 | 1007.6 |
| 20260507145033 | 59 | 301 | 2.0 | 6.0 | 0.00 | 0.19 | 0.10 | 59 | 1007.6 |
| 20260507144528 | 58 | 16 | 1.0 | 3.0 | 0.00 | 0.19 | 0.10 | 58 | 1007.7 |
| 20260507144028 | 57 | 20 | 1.0 | 3.0 | 0.00 | 0.19 | 0.10 | 59 | 1007.8 |
| 20260507143528 | 58 | 12 | 2.0 | 4.0 | 0.00 | 0.19 | 0.10 | 57 | 1007.8 |
| 20260507143028 | 58 | 20 | 2.0 | 8.0 | 0.00 | 0.19 | 0.10 | 59 | 1007.8 |
| 20260507142528 | 58 | 47 | 2.0 | 8.0 | 0.00 | 0.19 | 0.10 | 57 | 1007.9 |
| 20260507142028 | 58 | 39 | 1.0 | 3.0 | 0.00 | 0.19 | 0.10 | 56 | 1007.9 |
| 20260507141548 | 58 | 23 | 1.0 | 2.0 | 0.00 | 0.19 | 0.10 | 60 | 1007.9 |
| 20260507141027 | 58 | 5 | 1.0 | 3.0 | 0.00 | 0.19 | 0.10 | 58 | 1007.9 |
| 20260507140528 | 57 | 321 | 1.0 | 3.0 | 0.00 | 0.19 | 0.10 | 58 | 1007.8 |
| 20260507140028 | 57 | 22 | 1.0 | 3.0 | 0.00 | 0.19 | 0.10 | 59 | 1007.8 |
| 20260507135527 | 57 | 36 | 1.0 | 3.0 | 0.00 | 0.19 | 0.10 | 58 | 1007.8 |
| 20260507135027 | 56 | 25 | 2.0 | 3.0 | 0.00 | 0.19 | 0.10 | 59 | 1007.7 |
| 20260507134527 | 56 | 19 | 1.0 | 3.0 | 0.00 | 0.19 | 0.10 | 60 | 1007.8 |
| 20260507134027 | 56 | 348 | 2.0 | 3.0 | 0.00 | 0.19 | 0.10 | 61 | 1007.8 |
| 20260507133527 | 56 | 359 | 2.0 | 6.0 | 0.00 | 0.19 | 0.10 | 61 | 1007.9 |
| 20260507133029 | 55 | 324 | 2.0 | 4.0 | 0.00 | 0.19 | 0.10 | 62 | 1007.9 |
| 20260507132529 | 55 | 348 | 2.0 | 4.0 | 0.00 | 0.19 | 0.10 | 62 | 1008.0 |
| 20260507132028 | 55 | 22 | 1.0 | 3.0 | 0.00 | 0.19 | 0.10 | 63 | 1008.0 |
| 20260507131528 | 54 | 321 | 2.0 | 4.0 | 0.00 | 0.19 | 0.10 | 68 | 1008.1 |
| 20260507131029 | 54 | 8 | 2.0 | 3.0 | 0.00 | 0.19 | 0.10 | 70 | 1008.1 |
| 20260507130528 | 54 | 33 | 1.0 | 3.0 | 0.00 | 0.19 | 0.10 | 74 | 1008.0 |
| 20260507130028 | 54 | 20 | 1.0 | 3.0 | 0.00 | 0.19 | 0.10 | 76 | 1008.1 |
| 20260507125528 | 54 | 14 | 1.0 | 3.0 | 0.00 | 0.19 | 0.10 | 80 | 1008.1 |
| 20260507125108 | 53 | 325 | 1.0 | 2.0 | 0.00 | 0.19 | 0.10 | 83 | 1008.3 |
| 20260507124527 | 52 | 312 | 1.0 | 2.0 | 0.00 | 0.19 | 0.10 | 85 | 1008.3 |
| 20260507124048 | 52 | 358 | 1.0 | 2.0 | 0.00 | 0.19 | 0.10 | 87 | 1008.3 |
| 20260507123527 | 51 | 353 | 1.0 | 3.0 | 0.00 | 0.19 | 0.10 | 87 | 1008.4 |
| 20260507123027 | 51 | 353 | 0.0 | 2.0 | 0.00 | 0.19 | 0.10 | 88 | 1008.2 |
| 20260507122527 | 51 | 353 | 0.0 | 2.0 | 0.00 | 0.19 | 0.10 | 88 | 1008.2 |
| 20260507122027 | 50 | 353 | 1.0 | 2.0 | 0.00 | 0.19 | 0.10 | 90 | 1008.2 |
| 20260507121529 | 50 | 329 | 0.0 | 1.0 | 0.00 | 0.19 | 0.10 | 90 | 1008.3 |
| 20260507121049 | 50 | 27 | 0.0 | 2.0 | 0.00 | 0.19 | 0.10 | 91 | 1008.2 |
| 20260507120528 | 49 | 27 | 0.0 | 2.0 | 0.00 | 0.19 | 0.10 | 92 | 1008.1 |
| 20260507120028 | 49 | 26 | 0.0 | 2.0 | 0.00 | 0.19 | 0.10 | 93 | 1008.1 |
| 20260507115528 | 49 | 0.0 | 0.0 | 0.00 | 0.19 | 0.10 | 94 | 1008.1 | |
| 20260507115028 | 49 | 293 | 0.0 | 1.0 | 0.00 | 0.19 | 0.10 | 95 | 1008.1 |
| 20260507114548 | 49 | 0.0 | 1.0 | 0.00 | 0.19 | 0.10 | 95 | 1008.1 | |
| 20260507114028 | 48 | 293 | 0.0 | 1.0 | 0.00 | 0.19 | 0.10 | 95 | 1008.0 |
| 20260507113528 | 48 | 0.0 | 1.0 | 0.00 | 0.19 | 0.10 | 96 | 1008.0 | |
| 20260507113027 | 48 | 282 | 0.0 | 1.0 | 0.00 | 0.19 | 0.10 | 97 | 1008.1 |
| 20260507112528 | 48 | 0.0 | 0.0 | 0.00 | 0.19 | 0.10 | 97 | 1008.1 | |
| 20260507112027 | 48 | 0.0 | 0.0 | 0.00 | 0.19 | 0.10 | 97 | 1008.0 | |
| 20260507111528 | 48 | 0.0 | 0.0 | 0.00 | 0.19 | 0.10 | 97 | 1007.9 | |
| 20260507111047 | 48 | 0.0 | 0.0 | 0.00 | 0.19 | 0.10 | 97 | 1008.0 | |
| 20260507110527 | 48 | 0.0 | 0.0 | 0.00 | 0.19 | 0.10 | 97 | 1007.8 | |
| 20260507110027 | 48 | 0.0 | 0.0 | 0.00 | 0.19 | 0.10 | 97 | 1007.9 | |
| 20260507105527 | 48 | 0.0 | 0.0 | 0.00 | 0.19 | 0.10 | 97 | 1008.0 | |
| 20260507105029 | 48 | 0.0 | 0.0 | 0.01 | 0.19 | 0.10 | 97 | 1008.1 | |
| 20260507104528 | 48 | 0.0 | 0.0 | 0.01 | 0.19 | 0.10 | 97 | 1008.2 | |
| 20260507104028 | 48 | 233 | 0.0 | 1.0 | 0.02 | 0.19 | 0.10 | 96 | 1008.2 |
| 20260507103528 | 48 | 0.0 | 1.0 | 0.02 | 0.19 | 0.10 | 96 | 1008.0 | |
| 20260507103028 | 48 | 0.0 | 0.0 | 0.02 | 0.19 | 0.10 | 96 | 1007.7 | |
| 20260507102548 | 48 | 0.0 | 1.0 | 0.02 | 0.19 | 0.10 | 96 | 1007.6 | |
| 20260507102108 | 48 | 0.0 | 0.0 | 0.02 | 0.19 | 0.10 | 96 | 1007.4 | |
| 20260507101528 | 48 | 0.0 | 0.0 | 0.04 | 0.19 | 0.10 | 96 | 1007.2 | |
| 20260507101048 | 48 | 0.0 | 0.0 | 0.05 | 0.19 | 0.10 | 96 | 1007.3 | |
| 20260507100528 | 48 | 37 | 0.0 | 1.0 | 0.05 | 0.18 | 0.09 | 96 | 1007.4 |
| 20260507100028 | 48 | 0.0 | 0.0 | 0.05 | 0.18 | 0.09 | 96 | 1007.3 | |
| 20260507095528 | 48 | 0.0 | 0.0 | 0.05 | 0.18 | 0.09 | 95 | 1007.3 | |
| 20260507095027 | 48 | 0.0 | 0.0 | 0.06 | 0.18 | 0.09 | 95 | 1007.2 | |
| 20260507094527 | 48 | 37 | 0.0 | 1.0 | 0.05 | 0.17 | 0.08 | 96 | 1007.2 |
| 20260507094027 | 49 | 52 | 0.0 | 2.0 | 0.05 | 0.17 | 0.08 | 95 | 1007.1 |
| 20260507093527 | 49 | 94 | 0.0 | 2.0 | 0.05 | 0.17 | 0.08 | 95 | 1007.3 |
| 20260507093029 | 49 | 136 | 0.0 | 1.0 | 0.05 | 0.17 | 0.08 | 95 | 1007.5 |
| 20260507092527 | 49 | 137 | 0.0 | 1.0 | 0.05 | 0.17 | 0.08 | 96 | 1007.4 |
| 20260507092029 | 49 | 0.0 | 1.0 | 0.05 | 0.17 | 0.08 | 95 | 1007.2 | |
| 20260507091528 | 49 | 136 | 0.0 | 1.0 | 0.04 | 0.15 | 0.06 | 95 | 1007.3 |
| 20260507091028 | 50 | 136 | 0.0 | 1.0 | 0.02 | 0.14 | 0.05 | 95 | 1007.4 |
| 20260507090528 | 50 | 171 | 0.0 | 2.0 | 0.02 | 0.13 | 0.04 | 95 | 1007.6 |
| 20260507090028 | 50 | 230 | 0.0 | 1.0 | 0.02 | 0.13 | 0.04 | 95 | 1007.6 |
| 20260507085528 | 50 | 0.0 | 1.0 | 0.02 | 0.13 | 0.04 | 95 | 1007.5 | |
| 20260507085048 | 50 | 230 | 0.0 | 1.0 | 0.01 | 0.12 | 0.03 | 94 | 1007.4 |
| 20260507084528 | 50 | 229 | 0.0 | 1.0 | 0.01 | 0.12 | 0.03 | 95 | 1007.5 |
| 20260507084048 | 50 | 0.0 | 1.0 | 0.02 | 0.12 | 0.03 | 95 | 1007.4 | |
| 20260507083527 | 51 | 229 | 0.0 | 1.0 | 0.02 | 0.12 | 0.03 | 95 | 1007.3 |
| 20260507083027 | 51 | 0.0 | 0.0 | 0.02 | 0.12 | 0.03 | 95 | 1007.2 | |
| 20260507082527 | 51 | 0.0 | 0.0 | 0.02 | 0.12 | 0.03 | 94 | 1007.1 | |
| 20260507082047 | 51 | 230 | 0.0 | 1.0 | 0.02 | 0.12 | 0.03 | 94 | 1007.0 |
| 20260507081527 | 51 | 223 | 0.0 | 2.0 | 0.02 | 0.11 | 0.02 | 94 | 1006.8 |
| 20260507081027 | 51 | 0.0 | 0.0 | 0.02 | 0.11 | 0.02 | 92 | 1006.9 | |
| 20260507080526 | 51 | 326 | 0.0 | 1.0 | 0.02 | 0.11 | 0.02 | 92 | 1007.3 |
| 20260507080029 | 52 | 326 | 0.0 | 3.0 | 0.02 | 0.11 | 0.02 | 91 | 1007.1 |
| 20260507075528 | 52 | 335 | 1.0 | 3.0 | 0.02 | 0.11 | 0.02 | 91 | 1007.3 |
| 20260507075028 | 53 | 90 | 1.0 | 3.0 | 0.02 | 0.11 | 0.02 | 91 | 1007.1 |
| 20260507074528 | 53 | 13 | 1.0 | 2.0 | 0.02 | 0.11 | 0.02 | 90 | 1006.9 |
| 20260507074028 | 54 | 18 | 0.0 | 2.0 | 0.01 | 0.10 | 0.01 | 90 | 1007.0 |
| 20260507073528 | 54 | 18 | 0.0 | 1.0 | 0.00 | 0.09 | 0.00 | 90 | 1007.2 |
| 20260507073028 | 54 | 18 | 0.0 | 1.0 | 0.00 | 0.09 | 0.00 | 90 | 1006.8 |
| 20260507072527 | 54 | 20 | 0.0 | 2.0 | 0.00 | 0.09 | 0.00 | 90 | 1006.4 |
| 20260507072027 | 54 | 26 | 1.0 | 2.0 | 0.00 | 0.09 | 0.00 | 90 | 1006.3 |
| 20260507071527 | 54 | 30 | 1.0 | 1.0 | 0.00 | 0.09 | 0.00 | 90 | 1006.3 |
| 20260507071047 | 54 | 30 | 0.0 | 1.0 | 0.00 | 0.09 | 0.00 | 90 | 1006.3 |
| 20260507070527 | 54 | 30 | 0.0 | 1.0 | 0.00 | 0.09 | 0.00 | 90 | 1006.5 |
| 20260507070027 | 54 | 30 | 0.0 | 1.0 | 0.00 | 0.09 | 0.00 | 90 | 1006.4 |
| 20260507065527 | 54 | 30 | 0.0 | 1.0 | 0.00 | 0.09 | 0.00 | 90 | 1006.2 |
| 20260507065027 | 54 | 30 | 0.0 | 1.0 | 0.00 | 0.09 | 0.00 | 90 | 1006.5 |
| 20260507064529 | 54 | 30 | 0.0 | 2.0 | 0.00 | 0.09 | 0.00 | 90 | 1006.2 |
| 20260507064028 | 55 | 30 | 0.0 | 2.0 | 0.00 | 0.09 | 0.00 | 90 | 1006.3 |
| 20260507063528 | 55 | 31 | 1.0 | 3.0 | 0.00 | 0.09 | 0.00 | 90 | 1006.3 |
| 20260507063028 | 55 | 181 | 0.0 | 2.0 | 0.00 | 0.09 | 0.00 | 91 | 1006.4 |
| 20260507062528 | 55 | 20 | 0.0 | 3.0 | 0.00 | 0.09 | 0.00 | 90 | 1006.5 |
| 20260507062048 | 55 | 10 | 1.0 | 3.0 | 0.00 | 0.09 | 0.00 | 90 | 1006.4 |
| 20260507061528 | 55 | 43 | 1.0 | 1.0 | 0.00 | 0.09 | 0.00 | 90 | 1006.2 |
| 20260507061027 | 55 | 44 | 0.0 | 1.0 | 0.00 | 0.09 | 0.00 | 90 | 1006.3 |
| 20260507060527 | 55 | 44 | 0.0 | 2.0 | 0.00 | 0.09 | 0.00 | 89 | 1006.4 |
| 20260507060027 | 55 | 48 | 0.0 | 2.0 | 0.00 | 0.09 | 0.00 | 90 | 1006.4 |
| 20260507055527 | 55 | 71 | 0.0 | 1.0 | 0.00 | 0.09 | 0.00 | 89 | 1006.6 |
| 20260507055027 | 56 | 72 | 0.0 | 2.0 | 0.00 | 0.09 | 0.00 | 90 | 1006.6 |
| 20260507054527 | 56 | 72 | 0.0 | 1.0 | 0.00 | 0.09 | 0.00 | 90 | 1006.5 |
| 20260507054027 | 56 | 52 | 1.0 | 3.0 | 0.00 | 0.09 | 0.00 | 90 | 1006.7 |
| 20260507053547 | 56 | 27 | 1.0 | 2.0 | 0.00 | 0.09 | 0.00 | 90 | 1006.8 |
| 20260507053029 | 56 | 28 | 0.0 | 1.0 | 0.00 | 0.09 | 0.00 | 91 | 1006.7 |
| 20260507052528 | 56 | 28 | 0.0 | 2.0 | 0.00 | 0.09 | 0.00 | 91 | 1006.5 |
| 20260507052028 | 57 | 26 | 0.0 | 2.0 | 0.00 | 0.09 | 0.00 | 91 | 1006.4 |
| 20260507051528 | 57 | 32 | 0.0 | 2.0 | 0.00 | 0.09 | 0.00 | 90 | 1006.2 |
| 20260507051028 | 57 | 352 | 1.0 | 2.0 | 0.00 | 0.09 | 0.00 | 90 | 1006.4 |
| 20260507050527 | 57 | 336 | 1.0 | 2.0 | 0.00 | 0.09 | 0.00 | 90 | 1006.3 |
| 20260507050048 | 57 | 344 | 1.0 | 3.0 | 0.00 | 0.09 | 0.00 | 90 | 1006.4 |
| 20260507045528 | 58 | 3 | 1.0 | 2.0 | 0.00 | 0.09 | 0.00 | 91 | 1006.6 |
| 20260507045108 | 58 | 19 | 1.0 | 3.0 | 0.00 | 0.09 | 0.00 | 92 | 1006.5 |
| 20260507044527 | 58 | 352 | 1.0 | 3.0 | 0.00 | 0.09 | 0.00 | 94 | 1006.6 |
| 20260507044027 | 58 | 71 | 0.0 | 1.0 | 0.00 | 0.09 | 0.00 | 94 | 1006.4 |
| 20260507043547 | 58 | 0 | 0.0 | 2.0 | 0.00 | 0.09 | 0.00 | 95 | 1006.3 |
| 20260507043027 | 58 | 218 | 1.0 | 1.0 | 0.00 | 0.09 | 0.00 | 95 | 1006.3 |
| 20260507042527 | 58 | 190 | 0.0 | 2.0 | 0.00 | 0.09 | 0.00 | 95 | 1006.3 |
| 20260507042027 | 59 | 185 | 1.0 | 3.0 | 0.01 | 0.09 | 0.00 | 96 | 1006.4 |
| 20260507041549 | 59 | 353 | 1.0 | 2.0 | 0.01 | 0.09 | 0.00 | 96 | 1006.4 |
| 20260507041028 | 59 | 63 | 0.0 | 2.0 | 0.01 | 0.09 | 0.00 | 97 | 1006.5 |
| 20260507040528 | 59 | 76 | 0.0 | 2.0 | 0.00 | 0.09 | 0.00 | 97 | 1006.7 |
| 20260507040108 | 59 | 124 | 0.0 | 1.0 | 0.00 | 0.09 | 0.00 | 97 | 1006.8 |
| 20260507035549 | 59 | 119 | 0.0 | 1.0 | 0.00 | 0.09 | 0.09 | 97 | 1006.6 |
| 20260507035028 | 59 | 119 | 0.0 | 1.0 | 0.00 | 0.09 | 0.09 | 97 | 1006.5 |
| 20260507034548 | 59 | 131 | 0.0 | 2.0 | 0.00 | 0.09 | 0.09 | 97 | 1006.3 |
| 20260507034027 | 59 | 126 | 0.0 | 2.0 | 0.00 | 0.09 | 0.09 | 97 | 1006.3 |
| 20260507033527 | 59 | 271 | 0.0 | 2.0 | 0.00 | 0.09 | 0.09 | 96 | 1006.1 |
| 20260507033047 | 59 | 313 | 0.0 | 3.0 | 0.00 | 0.09 | 0.09 | 96 | 1006.1 |
| 20260507032527 | 59 | 56 | 1.0 | 3.0 | 0.00 | 0.09 | 0.09 | 96 | 1006.2 |
| 20260507032027 | 59 | 187 | 0.0 | 3.0 | 0.00 | 0.09 | 0.09 | 95 | 1006.0 |
| 20260507031527 | 59 | 251 | 1.0 | 4.0 | 0.00 | 0.09 | 0.09 | 95 | 1005.8 |
| 20260507031027 | 59 | 113 | 1.0 | 4.0 | 0.00 | 0.09 | 0.09 | 95 | 1005.8 |
| 20260507030527 | 59 | 190 | 1.0 | 3.0 | 0.00 | 0.09 | 0.09 | 95 | 1005.8 |
| 20260507030029 | 59 | 269 | 0.0 | 2.0 | 0.00 | 0.09 | 0.09 | 95 | 1005.7 |
| 20260507025528 | 59 | 282 | 1.0 | 6.0 | 0.00 | 0.09 | 0.09 | 95 | 1005.6 |
| 20260507025028 | 59 | 205 | 0.0 | 6.0 | 0.00 | 0.09 | 0.09 | 95 | 1005.6 |
| 20260507024528 | 59 | 223 | 1.0 | 7.0 | 0.00 | 0.09 | 0.09 | 95 | 1005.8 |
| 20260507024028 | 59 | 209 | 1.0 | 7.0 | 0.00 | 0.09 | 0.09 | 95 | 1005.9 |
| 20260507023528 | 59 | 216 | 1.0 | 3.0 | 0.00 | 0.09 | 0.09 | 95 | 1005.9 |
| 20260507023028 | 59 | 120 | 0.0 | 3.0 | 0.00 | 0.09 | 0.09 | 95 | 1006.0 |
| 20260507022527 | 59 | 215 | 1.0 | 6.0 | 0.00 | 0.09 | 0.09 | 95 | 1005.9 |
| 20260507022027 | 59 | 204 | 1.0 | 3.0 | 0.00 | 0.09 | 0.09 | 95 | 1005.8 |
| 20260507021527 | 59 | 221 | 1.0 | 4.0 | 0.00 | 0.09 | 0.09 | 95 | 1005.9 |
| 20260507021029 | 59 | 250 | 1.0 | 7.0 | 0.00 | 0.09 | 0.09 | 96 | 1005.9 |
| 20260507020527 | 59 | 202 | 0.0 | 3.0 | 0.00 | 0.09 | 0.09 | 96 | 1005.9 |
| 20260507020027 | 59 | 220 | 0.0 | 2.0 | 0.00 | 0.09 | 0.09 | 96 | 1005.8 |
| 20260507015529 | 59 | 242 | 1.0 | 3.0 | 0.00 | 0.09 | 0.09 | 96 | 1005.8 |
| 20260507015028 | 59 | 249 | 1.0 | 3.0 | 0.00 | 0.09 | 0.09 | 96 | 1005.9 |
| 20260507014528 | 59 | 206 | 1.0 | 6.0 | 0.00 | 0.09 | 0.09 | 95 | 1005.9 |
| 20260507014028 | 59 | 210 | 1.0 | 6.0 | 0.00 | 0.09 | 0.09 | 96 | 1005.9 |
| 20260507013548 | 59 | 198 | 2.0 | 6.0 | 0.00 | 0.09 | 0.09 | 96 | 1005.9 |
| 20260507013028 | 59 | 261 | 1.0 | 4.0 | 0.00 | 0.09 | 0.09 | 96 | 1005.8 |
| 20260507012527 | 58 | 211 | 2.0 | 10.0 | 0.00 | 0.09 | 0.09 | 96 | 1006.0 |
| 20260507012028 | 58 | 210 | 2.0 | 8.0 | 0.00 | 0.09 | 0.09 | 96 | 1006.0 |
| 20260507011527 | 58 | 208 | 1.0 | 7.0 | 0.00 | 0.09 | 0.09 | 96 | 1006.0 |
| 20260507011028 | 58 | 264 | 2.0 | 7.0 | 0.00 | 0.09 | 0.09 | 96 | 1006.1 |
| 20260507010527 | 58 | 232 | 2.0 | 9.0 | 0.00 | 0.09 | 0.09 | 95 | 1006.1 |
| 20260507010027 | 58 | 193 | 2.0 | 9.0 | 0.00 | 0.09 | 0.09 | 95 | 1006.1 |
| 20260507005527 | 58 | 237 | 1.0 | 4.0 | 0.00 | 0.09 | 0.09 | 95 | 1006.2 |
| 20260507005047 | 58 | 177 | 1.0 | 7.0 | 0.00 | 0.09 | 0.09 | 95 | 1006.1 |
| 20260507004527 | 58 | 233 | 1.0 | 6.0 | 0.00 | 0.09 | 0.09 | 95 | 1006.2 |
| 20260507004027 | 58 | 214 | 2.0 | 6.0 | 0.00 | 0.09 | 0.09 | 95 | 1006.1 |
| 20260507003526 | 58 | 243 | 1.0 | 7.0 | 0.00 | 0.09 | 0.09 | 95 | 1006.1 |
| 20260507003029 | 58 | 244 | 1.0 | 7.0 | 0.00 | 0.09 | 0.09 | 95 | 1006.1 |